TimeCST,TemperatureF,Dew PointF,Humidity,Sea Level PressureIn,VisibilityMPH,Wind Direction,Wind SpeedMPH,Gust SpeedMPH,PrecipitationIn,Events,Conditions,WindDirDegrees,DateUTC
12:53 AM,18.0,9.0,68,30.33,10.0,SSW,12.7,-,N/A,,Clear,200,2012-11-27 06:53:00
1:53 AM,17.1,9.0,71,30.30,10.0,South,8.1,-,N/A,,Clear,180,2012-11-27 07:53:00
2:53 AM,16.0,10.9,81,30.28,10.0,SSE,9.2,-,N/A,,Clear,160,2012-11-27 08:53:00
3:53 AM,15.1,10.9,84,30.26,10.0,South,8.1,-,N/A,,Clear,170,2012-11-27 09:53:00
4:53 AM,19.0,16.0,88,30.22,10.0,South,9.2,-,N/A,,Clear,180,2012-11-27 10:53:00
5:53 AM,16.0,12.9,88,30.21,10.0,SSE,6.9,-,N/A,,Clear,160,2012-11-27 11:53:00
6:53 AM,17.1,15.1,92,30.21,10.0,South,5.8,-,N/A,,Clear,180,2012-11-27 12:53:00
7:53 AM,18.0,15.1,88,30.19,10.0,South,4.6,-,N/A,,Clear,170,2012-11-27 13:53:00
8:53 AM,19.0,16.0,88,30.19,10.0,South,4.6,-,N/A,,Clear,170,2012-11-27 14:53:00
9:53 AM,25.0,19.9,81,30.18,10.0,SSW,11.5,-,N/A,,Clear,210,2012-11-27 15:53:00
10:53 AM,28.9,21.0,72,30.18,10.0,WSW,9.2,-,N/A,,Clear,240,2012-11-27 16:53:00
11:53 AM,30.9,21.9,69,30.16,10.0,SW,8.1,-,N/A,,Clear,220,2012-11-27 17:53:00
2:53 PM,34.0,23.0,64,30.16,10.0,WNW,8.1,-,N/A,,Clear,300,2012-11-27 20:53:00
3:53 PM,34.0,23.0,64,30.18,10.0,WNW,6.9,-,N/A,,Clear,300,2012-11-27 21:53:00
4:53 PM,27.0,19.9,75,30.22,10.0,North,5.8,-,N/A,,Clear,360,2012-11-27 22:53:00
5:53 PM,25.0,19.9,81,30.25,10.0,NNW,6.9,-,N/A,,Clear,340,2012-11-27 23:53:00
6:53 PM,23.0,19.0,85,30.26,10.0,NW,3.5,-,N/A,,Clear,320,2012-11-28 00:53:00
7:53 PM,19.0,17.1,92,30.29,10.0,Calm,Calm,-,N/A,,Clear,0,2012-11-28 01:53:00
8:53 PM,19.9,17.1,89,30.30,10.0,Calm,Calm,-,N/A,,Clear,0,2012-11-28 02:53:00
9:53 PM,18.0,17.1,96,30.31,10.0,WNW,3.5,-,N/A,,Clear,290,2012-11-28 03:53:00
10:53 PM,15.1,12.0,88,30.32,7.0,Calm,Calm,-,N/A,,Clear,0,2012-11-28 04:53:00
11:53 PM,16.0,14.0,92,30.32,5.0,Calm,Calm,-,N/A,,Clear,0,2012-11-28 05:53:00